This demonstration page uses our WeatherBlox Daily Observations layout. Learn more.

Left ArrowRight Arrow

Hourly Observations for February 26, 2017

Temp ( °F °C ) Dew Point ( °F °C ) Humidity (%) Winds ( mph kmh ) Pressure ( in mb ) Visibility ( mi km ) Precip ( " mm )
12:53 am 00:53 Clear 27 -2.8 19 -7.2 72 72 W 7 11 30.11 1020 10 16 N/A
1:53 am 01:53 Clear 27 -2.8 18 -7.8 69 69 W 6 9 30.12 1020 10 16 N/A
2:53 am 02:53 Mostly Clear 24 -4.4 18 -7.8 77 77 N N/A 30.14 1021 10 16 N/A
3:53 am 03:53 Clear 26 -3.3 18 -7.8 71 71 WNW 8 13 30.14 1021 10 16 N/A
4:53 am 04:53 Clear 23 -5 17 -8.3 78 78 W 5 7 30.16 1022 10 16 N/A
5:53 am 05:53 Clear 20 -6.7 16 -8.9 85 85 N N/A 30.19 1022 10 16 N/A
6:53 am 06:53 Clear 18 -7.8 14 -10 84 84 N N/A 30.21 1023 10 16 N/A
7:53 am 07:53 Sunny 21 -6.1 19 -7.2 92 92 N N/A 30.23 1024 10 16 N/A
8:53 am 08:53 Sunny 28 -2.2 20 -6.7 72 72 WSW 6 9 30.25 1025 10 16 N/A
9:53 am 09:53 Sunny 32 undefined 16 -8.9 52 52 SSW 5 7 30.26 1025 10 16 N/A
10:53 am 10:53 Sunny 35 1.7 16 -8.9 46 46 VRB 5 7 30.26 1025 10 16 N/A
11:53 am 11:53 Sunny 39 3.9 17 -8.3 41 41 SW 5 7 30.24 1024 10 16 N/A
12:53 pm 12:53 Sunny 42 5.6 15 -9.4 33 33 VRB 7 11 30.22 1023 10 16 N/A
1:53 pm 13:53 Sunny 45 7.2 16 -8.9 31 31 S 8 13 30.19 1023 10 16 N/A
2:53 pm 14:53 Sunny 47 8.3 16 -8.9 29 29 S 10 17 30.18 1022 10 16 N/A
3:53 pm 15:53 Sunny 48 8.9 16 -8.9 28 28 SW 8 13 30.17 1022 10 16 N/A
4:53 pm 16:53 Sunny 48 8.9 15 -9.4 27 27 SSW 12 19 30.17 1022 10 16 N/A
5:53 pm 17:53 Mostly Cloudy 46 7.8 14 -10 27 27 SSW 7 11 30.18 1022 10 16 N/A
6:53 pm 18:53 Cloudy 45 7.2 16 -8.9 31 31 SSW 3 6 30.18 1022 10 16 N/A
7:53 pm 19:53 Mostly Cloudy 44 6.7 17 -8.3 34 34 SSW 5 7 30.19 1022 10 16 N/A
8:53 pm 20:53 Mostly Clear 44 6.7 17 -8.3 34 34 S 5 7 30.19 1022 10 16 N/A
9:53 pm 21:53 Clear 43 6.1 18 -7.8 37 37 VRB 5 7 30.19 1022 10 16 N/A
10:53 pm 22:53 Partly Cloudy 42 5.6 18 -7.8 38 38 S 3 6 30.20 1023 10 16 N/A
11:53 pm 23:53 Cloudy 39 3.9 25 -3.9 57 57 N N/A 30.20 1023 10 16 N/A

Powered by AerisWeather